West Vancouver, British Columbia

6:40 AM PDT on April 23, 2017 (GMT -0700)
West Vancouver

Weather History for CWWA - February, 2013

Change the Weather History Date:

Saturday, February 9, 2013

  Actual Average Record
Temperature  
Mean Temperature 38 °F -  
Max Temperature 41 °F - - ()
Min Temperature 36 °F - - ()
Degree Days  
Heating Degree Days 26    
Moisture  
Dew Point 35 °F    
Average Humidity 86    
Maximum Humidity 93    
Minimum Humidity 75    
Precipitation  
Precipitation 0.00 in - - ()
Sea Level Pressure  
Sea Level Pressure 30.28 in    
Wind  
Wind Speed 0 mph ()    
Max Wind Speed 4 mph    
Max Gust Speed -    
T = Trace of Precipitation, MM = Missing Value Source: Averaged Metar Reports

Daily Weather History Graph

Daily Weather History Graph

Search for Another Location

Airport or City:

Trip Planner

Search our weather history database for the weather conditions in past years. The results will help you decide how hot, cold, wet, or windy it might be!

Date:

Astronomy

Feb. 09, 2013 Rise Set
Actual Time 7:31 AM PST 5:23 PM PST
Civil Twilight 6:58 AM PST 5:56 PM PST
Nautical Twilight 6:20 AM PST 6:34 PM PST
Astronomical Twilight 5:43 AM PST 7:11 PM PST
Moon 6:45 AM PST (2/9) 5:16 PM PST (2/9)
Length of Visible Light 10h 58m
Length of Day
9h 51m
Waning Crescent, 0% of the Moon is Illuminated
Feb 9
Waning Crescent
Feb 9
New
Feb 17
First Quarter
Feb 25
Full
Mar 4
Last Quarter

Hourly Weather History & Observations

Time (PST) Temp. Windchill Dew Point Humidity Pressure Visibility Wind Dir Wind Speed Gust Speed Precip Events Conditions
12:00 AM 37.4 °F - 33.8 °F 87% 30.27 in - Calm Calm - N/A   Unknown
1:00 AM 37.6 °F - 34.3 °F 88% 30.27 in - NNE 1.2 mph - N/A   Unknown
2:00 AM 37.2 °F - 34.0 °F 88% 30.27 in - Calm Calm - N/A   Unknown
3:00 AM 37.4 °F - 33.8 °F 87% 30.26 in - Calm Calm - N/A   Unknown
4:00 AM 37 °F - 34 °F 84% 30.26 in - Calm Calm - -  
4:00 AM 37.4 °F - 34.0 °F 87% 30.26 in - Calm Calm - N/A   Unknown
5:00 AM 37.2 °F - 34.0 °F 88% 30.27 in - Calm Calm - N/A   Unknown
6:00 AM 37.4 °F - 34.2 °F 88% 30.26 in - Calm Calm - N/A   Unknown
7:00 AM 37.6 °F - 34.3 °F 88% 30.25 in - Calm Calm - N/A   Unknown
8:00 AM 37.2 °F - 34.9 °F 91% 30.27 in - Calm Calm - N/A   Unknown
9:00 AM 37.8 °F - 36.0 °F 93% 30.27 in - Calm Calm - N/A   Unknown
10:00 AM 38 °F - 36 °F 91% 30.27 in - Calm Calm - -  
10:00 AM 38.3 °F - 36.3 °F 93% 30.27 in - Calm Calm - N/A   Unknown
11:00 AM 39.2 °F - 37.0 °F 92% 30.28 in - SSW 1.2 mph - N/A   Unknown
12:00 PM 39.2 °F - 36.5 °F 90% 30.28 in - Calm Calm - N/A   Unknown
1:00 PM 40.3 °F - 36.5 °F 86% 30.27 in - South 1.2 mph - N/A   Unknown
2:00 PM 39.9 °F - 36.1 °F 86% 30.28 in - West 1.2 mph - N/A   Unknown
3:00 PM 40.6 °F - 36.0 °F 83% 30.28 in - SSW 1.2 mph - N/A   Unknown
4:00 PM 40 °F - 35 °F 75% 30.29 in - Calm Calm - -  
4:00 PM 40.1 °F - 34.9 °F 82% 30.29 in - Calm Calm - N/A   Unknown
5:00 PM 39.4 °F - 34.9 °F 84% 30.30 in - Calm Calm - N/A   Unknown
6:00 PM 39.0 °F - 34.9 °F 85% 30.30 in - North 1.2 mph - N/A   Unknown
7:00 PM 38.7 °F - 34.2 °F 84% 30.30 in - NNE 1.2 mph - N/A   Unknown
8:00 PM 38.7 °F - 34.3 °F 84% 30.31 in - Calm Calm - N/A   Unknown
9:00 PM 38.7 °F - 33.4 °F 81% 30.32 in - North 2.3 mph - N/A   Unknown
10:00 PM 37 °F - 34 °F 83% 30.33 in - NNE 2.3 mph - -  
10:00 PM 37.4 °F - 33.6 °F 86% 30.33 in - NNE 2.3 mph - N/A   Unknown
11:00 PM 36.3 °F 33.7 °F 32.0 °F 84% 30.34 in - North 3.5 mph - N/A   Unknown